Time,TemperatureF,DewpointF,PressureIn,WindDirection,WindDirectionDegrees,WindSpeedMPH,WindSpeedGustMPH,Humidity,HourlyPrecipIn,Conditions,Clouds,dailyrainin,SoftwareType,DateUTC
2013-02-14 00:01:00,33.0,28.0,-100.00,SW,215,0.0,1.0,81,-99.99,,,-99.99,,2013-02-14 08:01:00,
2013-02-14 00:11:00,33.0,28.0,-100.00,SW,215,0.0,1.0,81,-99.99,,,-99.99,,2013-02-14 08:11:00,
2013-02-14 01:01:00,32.0,27.0,-100.00,North,-999,0.0,0.0,81,-99.99,,,-99.99,,2013-02-14 09:01:00,
2013-02-14 01:11:00,32.0,27.0,-100.00,North,-999,0.0,0.0,81,-99.99,,,-99.99,,2013-02-14 09:11:00,
2013-02-14 02:02:00,31.0,27.0,-100.00,SW,225,0.0,1.0,84,-99.99,,,-99.99,,2013-02-14 10:02:00,
2013-02-14 03:01:00,30.0,27.0,-100.00,ESE,105,1.0,1.0,88,-99.99,,,-99.99,,2013-02-14 11:01:00,
2013-02-14 03:11:00,30.0,27.0,-100.00,ESE,105,1.0,1.0,88,-99.99,,,-99.99,,2013-02-14 11:11:00,
2013-02-14 05:01:00,31.0,28.0,-100.00,East,90,1.0,1.0,88,-99.99,,,-99.99,,2013-02-14 13:01:00,
2013-02-14 05:10:00,32.0,28.0,-100.00,NNE,25,0.0,1.0,84,-99.99,,,-99.99,,2013-02-14 13:10:00,
2013-02-14 05:11:00,31.0,28.0,-100.00,East,90,1.0,1.0,88,-99.99,,,-99.99,,2013-02-14 13:11:00,
2013-02-14 06:01:00,32.0,28.0,-100.00,NNE,25,0.0,1.0,84,-99.99,,,-99.99,,2013-02-14 14:01:00,
2013-02-14 07:01:00,36.0,28.0,-100.00,SE,140,1.0,5.0,72,-99.99,,,-99.99,,2013-02-14 15:01:00,
2013-02-14 07:11:00,36.0,28.0,-100.00,SE,140,1.0,5.0,72,-99.99,,,-99.99,,2013-02-14 15:11:00,
2013-02-14 08:01:00,37.0,28.0,-100.00,NNE,30,1.0,5.0,69,-99.99,,,-99.99,,2013-02-14 16:01:00,
2013-02-14 08:10:00,38.0,29.0,-100.00,SE,140,2.0,9.0,69,-99.99,,,-99.99,,2013-02-14 16:10:00,
2013-02-14 09:01:00,38.0,29.0,-100.00,SE,140,2.0,9.0,69,-99.99,,,-99.99,,2013-02-14 17:01:00,
2013-02-14 10:01:00,40.0,30.0,-100.00,South,175,2.0,12.0,67,-99.99,,,-99.99,,2013-02-14 18:01:00,
2013-02-14 10:10:00,46.0,32.0,-100.00,South,185,1.0,3.0,57,-99.99,,,-99.99,,2013-02-14 18:10:00,
2013-02-14 11:00:00,47.0,31.0,-100.00,West,280,8.0,10.0,53,-99.99,,,-99.99,,2013-02-14 19:00:00,
2013-02-14 11:02:00,46.0,32.0,-100.00,South,185,1.0,3.0,57,-99.99,,,-99.99,,2013-02-14 19:02:00,
2013-02-14 12:10:00,50.0,31.0,-100.00,West,270,9.0,14.0,47,-99.99,,,-99.99,,2013-02-14 20:10:00,
2013-02-14 13:02:00,50.0,31.0,-100.00,West,270,9.0,14.0,47,-99.99,,,-99.99,,2013-02-14 21:02:00,
2013-02-14 13:20:00,49.0,30.0,-100.00,WSW,255,12.0,20.0,47,-99.99,,,-99.99,,2013-02-14 21:20:00,
2013-02-14 14:02:00,49.0,30.0,-100.00,WSW,255,12.0,20.0,47,-99.99,,,-99.99,,2013-02-14 22:02:00,
2013-02-14 14:10:00,51.0,31.0,-100.00,WSW,245,12.0,15.0,46,-99.99,,,-99.99,,2013-02-14 22:10:00,
2013-02-14 14:11:00,49.0,30.0,-100.00,WSW,255,12.0,20.0,47,-99.99,,,-99.99,,2013-02-14 22:11:00,
2013-02-14 15:00:00,51.0,31.0,-100.00,WSW,245,10.0,14.0,46,-99.99,,,-99.99,,2013-02-14 23:00:00,
2013-02-14 15:01:00,51.0,31.0,-100.00,WSW,245,12.0,15.0,46,-99.99,,,-99.99,,2013-02-14 23:01:00,
2013-02-14 16:10:00,52.0,31.0,-100.00,West,270,6.0,9.0,44,-99.99,,,-99.99,,2013-02-15 00:10:00,
2013-02-14 17:02:00,52.0,31.0,-100.00,West,270,6.0,9.0,44,-99.99,,,-99.99,,2013-02-15 01:02:00,
2013-02-14 18:01:00,47.0,34.0,-100.00,WSW,245,1.0,2.0,60,-99.99,,,-99.99,,2013-02-15 02:01:00,
2013-02-14 18:11:00,47.0,34.0,-100.00,WSW,245,1.0,2.0,60,-99.99,,,-99.99,,2013-02-15 02:11:00,
2013-02-14 19:00:00,39.0,33.0,-100.00,SE,125,0.0,2.0,78,-99.99,,,-99.99,,2013-02-15 03:00:00,
2013-02-14 21:02:00,36.0,32.0,-100.00,South,175,0.0,2.0,85,-99.99,,,-99.99,,2013-02-15 05:02:00,
2013-02-14 22:02:00,35.0,32.0,-100.00,North,5,0.0,1.0,88,-99.99,,,-99.99,,2013-02-15 06:02:00,
2013-02-14 22:11:00,35.0,32.0,-100.00,North,5,0.0,1.0,88,-99.99,,,-99.99,,2013-02-15 06:11:00,
2013-02-14 23:01:00,34.0,30.0,-100.00,ENE,75,0.0,1.0,85,-99.99,,,-99.99,,2013-02-15 07:01:00,